Location: Wheeling
(40.0640°N, 80.7210°W)
Time: 14:30:27
(UTC-05:00)

ITAMSAT 1 - Pass Details

Date: 27 October 2021
Orbit: 784 x 796 km, 98.9° (Epoch: 01 December)

Event Time Altitude Azimuth Distance (km) Brightness Sun altitude
Rises 19:18:57 0° 150° (SSE) 3,260 10.6 -10.7°
Reaches altitude 10° 19:21:19 10° 145° (SE) 2,336 9.8 -11.2°
Maximum altitude 19:26:16 50° 71° (ENE) 992 7.8 -12.1°
Drops below altitude 10° 19:31:17 10° 357° (N) 2,357 10.1 -13.0°
Sets 19:33:40 0° 352° (N) 3,292 10.9 -13.5°
